Location: Bryzozowice
(50.3667°N, 18.9667°E)
Time: 22:35:13
(UTC+00:00)

STARLINK-1126 - Pass Details

Date: 24 January 2020
Orbit: 348 x 351 km, 53.0° (Epoch: 18 February)

Event Time Altitude Azimuth Distance (km) Brightness Sun altitude
Rises 17:05:49 0° 278° (W) 2,179 8.1 -16.2°
Reaches altitude 10° 17:07:52 10° 284° (WNW) 1,335 6.6 -16.5°
Maximum altitude 17:10:46 47° 1° (N) 482 3.2 -17.0°
Enters shadow 17:11:03 45° 22° (NNE) 498 3.1 -17.0°
